This demonstration page uses our WeatherBlox Daily Observations layout. Learn more.

Left ArrowRight Arrow

47.50024, -111.30081

Hourly Observations for May 31, 2022

Temp ( °F °C ) Dew Point ( °F °C ) Humidity (%) Winds ( mph kmh ) Pressure ( in mb ) Visibility ( mi km ) Precip ( " mm )
12:53 am 00:53 Cloudy 47 8.3 37 2.8 69 69 NNW 13 20 30.16 1022 10 16 0.00 0.00
1:53 am 01:53 Partly Cloudy 43 6.1 35 1.7 74 74 NW 7 11 30.18 1022 10 16 0.00 0.00
2:53 am 02:53 Clear 40 4.4 33 0.6 77 77 NW 5 7 30.20 1023 10 16 0.00 0.00
3:53 am 03:53 Cloudy 40 4.4 34 1.1 79 79 NNW 3 6 30.22 1023 10 16 0.00 0.00
4:53 am 04:53 Clear 37 2.8 32 0 82 82 NNW 6 9 30.24 1024 10 16 0.00 0.00
5:53 am 05:53 Sunny 35 1.7 31 -0.6 85 85 NW 5 7 30.25 1024 10 16 0.00 0.00
6:53 am 06:53 Mostly Sunny 39 3.9 34 1.1 82 82 Calm 30.26 1025 10 16 0.00 0.00
7:53 am 07:53 Sunny 45 7.2 35 1.7 68 68 WNW 6 9 30.26 1025 10 16 0.00 0.00
8:53 am 08:53 Sunny 49 9.4 35 1.7 59 59 W 5 7 30.28 1025 10 16 0.00 0.00
9:53 am 09:53 Mostly Sunny 52 11.1 35 1.7 53 53 Calm 30.27 1025 10 16 0.00 0.00
10:53 am 10:53 Partly Cloudy 57 13.9 33 0.6 41 41 ENE 7 11 30.26 1025 10 16 0.00 0.00
11:53 am 11:53 Mostly Cloudy 57 13.9 31 -0.6 37 37 ENE 7 11 30.26 1025 10 16 0.00 0.00
12:53 pm 12:53 Cloudy 57 13.9 29 -1.7 34 34 VRB 7 11 30.26 1025 10 16 0.00 0.00
1:53 pm 13:53 Mostly Cloudy 60 15.6 29 -1.7 31 31 ESE 6 9 30.25 1024 10 16 0.00 0.00
2:53 pm 14:53 Mostly Sunny 60 15.6 27 -2.8 28 28 Calm 30.25 1024 10 16 0.00 0.00
3:53 pm 15:53 Mostly Sunny 62 16.7 27 -2.8 26 26 Calm 30.23 1024 10 16 0.00 0.00
4:53 pm 16:53 Sunny 62 16.7 28 -2.2 28 28 WNW 7 11 30.23 1024 10 16 0.00 0.00
5:53 pm 17:53 Mostly Cloudy 62 16.7 28 -2.2 28 28 ESE 9 15 30.23 1024 10 16 0.00 0.00
6:53 pm 18:53 Sunny 59 15 28 -2.2 31 31 Calm 30.23 1024 10 16 0.00 0.00
7:53 pm 19:53 Sunny 56 13.3 32 0 40 40 SSW 5 7 30.22 1023 10 16 0.00 0.00
8:53 pm 20:53 Sunny 52 11.1 29 -1.7 41 41 Calm 30.22 1023 10 16 0.00 0.00
9:53 pm 21:53 Mostly Cloudy 52 11.1 29 -1.7 41 41 SSE 3 6 30.22 1023 10 16 0.00 0.00
10:53 pm 22:53 Mostly Cloudy 49 9.4 30 -1.1 48 48 SSW 5 7 30.22 1023 10 16 0.00 0.00
11:53 pm 23:53 Clear 48 8.9 30 -1.1 50 50 Calm 30.21 1023 10 16 0.00 0.00

Powered by AerisWeather